Location: Marcé
(47.5801°N, 0.3280°W)
Time: 04:13:15
(UTC+01:00)

Explorer 11/Cluster Stage 4 - Pass Details

Date: 05 December 2021
Orbit: 467 x 1255 km, 28.8° (Epoch: 26 January)

Event Time Altitude Azimuth Distance (km) Brightness Sun altitude
Rises 04:08:28 0° 231° (SW) 3,573 - -43.6°
Reaches altitude 10° 04:12:01 10° 211° (SSW) 2,785 - -43.0°
Maximum altitude 04:16:03 16° 175° (S) 2,495 - -42.3°
Exits shadow 04:19:10 13° 148° (SSE) 2,829 9.5 -41.8°
Drops below altitude 10° 04:20:26 10° 140° (SE) 3,073 9.8 -41.6°
Sets 04:24:39 0° 121° (ESE) 4,129 10.8 -40.9°
